Location: Burbank
(38.7788°N, 114.0429°W)
Time: 01:26:11
(UTC+00:00)

Courier 1B Rocket - Pass Details

Date: 13 May 2026
Orbit: 920 x 1201 km, 28.2° (Epoch: 11 June)

Event Time Altitude Azimuth Distance (km) Brightness Sun altitude
Rises 14:55:57 0° 212° (SSW) 3,538 7.6 27.5°
Reaches altitude 10° 14:59:44 10° 189° (S) 2,607 7.2 28.2°
Maximum altitude 15:03:05 15° 156° (SSE) 2,287 7.4 28.9°
Drops below altitude 10° 15:06:30 10° 123° (ESE) 2,662 8.3 29.6°
Sets 15:10:26 0° 101° (ESE) 3,657 9.1 30.3°
